www.pogodaiklimat.ru

Погода и климат >> Архив погоды >> Великобритания >> Южный Уист


ПОГОДА на Южном Уисте

  • Прогноз погоды на Южном Уисте
  • Монитор погоды на Южном Уисте

АРХИВ ПОГОДЫ на Южном Уисте

Время (UTC), дата Ветер
(напр.,м/с)
 
Видим.   Явления Облачность Т
(С)
Тd
(С)
f
(%)
Тe
(С)
Тes
(С)
Комфортность P
(гПа)
Po
(гПа)
Тmin
(С)
Tmax
(С)
R
(мм)
R24
(мм)
S
(см)
19 17.05 С 6 60 км н/о +13.8 +8.3 69 +12 +12 1014.9 1014.4
20 17.05 С 7 50 км н/о +12.8 +8.6 76 +10 +10 1014.4 1013.9
21 17.05 С 4 45 км н/о +11.2 +8.4 83 +9 +9 1014.1 1013.6
22 17.05 С 2 50 км н/о +10.6 +8.4 86 +9 +9 1013.5 1013.0
23 17.05 В 4 55 км н/о +10.5 +7.3 81 +8 +8 1013.2 1012.7
00 18.05 В 5 35 км н/о +10.8 +7.9 82 +8 +8 1012.8 1012.4
01 18.05 В 4 25 км н/о +9.3 +6.8 84 +7 +7 1012.5 1012.0
02 18.05 В 4 65 км н/о +9.8 +7.7 87 +7 +7 1012.3 1011.8
03 18.05 В 5 60 км н/о +11.4 +8.2 81 +9 +9 1012.1 1011.6
04 18.05 В 5 >70 км н/о +11.1 +8.3 83 +8 +8 1011.9 1011.4
05 18.05 В 2 >70 км н/о +11.1 +8.6 85 +10 +10 1011.9 1011.4
06 18.05 В 5 55 км н/о +11.4 +8.1 80 +9 +9 1011.8 1011.4 +8.8
07 18.05 В 4 >70 км н/о +11.3 +8.5 83 +9 +9 1011.6 1011.1
08 18.05 В 7 55 км н/о +11.2 +8.1 81 +8 +8 1011.7 1011.2
09 18.05 В 6 30 км слаб. морось с дождем н/о +11.3 +9.0 86 +8 +8 1011.6 1011.1
10 18.05 СВ 5 60 км в посл. час дождь н/о +11.7 +8.9 83 +9 +9 1011.2 1010.7
11 18.05 СВ 5 >70 км н/о +12.2 +7.9 75 +10 +10 1010.8 1010.3
12 18.05 С 5 >70 км н/о +12.6 +8.3 75 +10 +10 1010.5 1010.0 0.0
13 18.05 С 4 >70 км н/о +12.6 +9.4 81 +11 +11 1010.1 1009.6
14 18.05 В 5 45 км н/о +11.5 +8.9 84 +9 +9 1009.8 1009.4
15 18.05 СВ 3 35 км н/о +11.4 +9.1 86 +10 +10 1009.4 1008.9
16 18.05 С 6 28 км н/о +10.9 +8.6 86 +8 +8 1009.1 1008.6
17 18.05 С 5 18 км в посл. час дождь н/о +10.9 +9.4 90 +8 +8 1008.8 1008.3
18 18.05 С 6 9000 м слаб. ливневой дождь н/о +11.1 +9.8 92 +8 +8 1008.8 1008.4 +13.5 0.2
19 18.05 В 2 7000 м дождь н/о +10.1 +8.8 92 +8 +8 1008.8 1008.4
20 18.05 В 2 7000 м дождь н/о +10.0 +9.0 93 +9 +9 1008.7 1008.3
21 18.05 В 2 9000 м дождь н/о +9.9 +9.0 94 +8 +8 1008.7 1008.3
22 18.05 С 2 24 км слаб. дождь н/о +9.8 +9.0 95 +8 +8 1008.6 1008.1
23 18.05 С 2 21 км слаб. дождь н/о +9.8 +9.0 95 +8 +8 1008.4 1007.9
00 19.05 С 2 23 км слаб. морось с дождем н/о +9.9 +9.1 95 +9 +9 1008.1 1007.6 5
01 19.05 С 2 23 км в посл. час дождь н/о +10.0 +9.3 95 +9 +9 1007.9 1007.4
02 19.05 СЗ 2 17 км слаб. морось н/о +10.1 +9.4 95 +8 +8 1007.8 1007.3
03 19.05 С 2 13 км слаб. морось н/о +10.1 +9.4 95 +8 +8 1007.7 1007.3
04 19.05 С 3 16 км слаб. морось н/о +9.9 +9.3 96 +7 +7 1007.7 1007.2
05 19.05 С 3 27 км слаб. дождь н/о +10.0 +9.4 96 +8 +8 1007.6 1007.1
06 19.05 С 2 35 км в посл. час дождь н/о +10.4 +9.7 95 +9 +9 1007.8 1007.3 +9.8 5
07 19.05 СЗ 3 28 км в посл. час дождь н/о +10.6 +9.7 94 +9 +9 1008.0 1007.5
08 19.05 СЗ 3 30 км н/о +11.1 +10.2 94 +9 +9 1008.3 1007.8
09 19.05 СЗ 3 29 км слаб. ливневой дождь н/о +11.1 +9.8 92 +9 +9 1008.5 1008.0
10 19.05 З 4 26 км в посл. час дождь н/о +11.2 +9.8 91 +9 +9 1008.7 1008.2
11 19.05 СЗ 4 40 км н/о +11.9 +10.3 90 +10 +10 1008.9 1008.4
12 19.05 З 4 65 км н/о +12.3 +10.1 86 +10 +10 1009.2 1008.7 0.0
13 19.05 З 4 65 км н/о +12.2 +9.6 84 +10 +10 1009.5 1009.0
14 19.05 З 5 35 км н/о +12.4 +10.1 86 +10 +10 1009.8 1009.3
15 19.05 З 4 >70 км н/о +12.1 +9.6 85 +10 +10 1009.9 1009.4
16 19.05 З 4 65 км н/о +12.0 +9.6 85 +10 +10 1010.1 1009.6
17 19.05 СЗ 4 45 км н/о +12.6 +9.9 84 +11 +11 1010.2 1009.7
18 19.05 СЗ 6 35 км н/о +11.3 +9.4 88 +8 +8 1010.4 1009.9 +13.2 0.0
19 19.05 СЗ 7 >70 км н/о +10.3 +9.0 92 +7 +7 1010.9 1010.4
20 19.05 СЗ 6 4000 м дым н/о +10.0 +9.0 93 +6 +6 1011.4 1010.9
21 19.05 СЗ 5 40 км н/о +10.0 +8.8 92 +7 +7 1011.6 1011.2
22 19.05 СЗ 5 40 км н/о +10.0 +8.5 90 +7 +7 1012.0 1011.5
23 19.05 СЗ 4 30 км н/о +10.1 +8.3 89 +7 +7 1012.2 1011.7
00 20.05 СЗ 4 35 км н/о +9.9 +7.9 87 +7 +7 1012.3 1011.9
01 20.05 СЗ 4 >70 км н/о +9.9 +7.5 85 +7 +7 1012.3 1011.8
02 20.05 СЗ 4 >70 км н/о +9.8 +7.4 85 +7 +7 1012.2 1011.8
03 20.05 СЗ 5 70 км н/о +9.8 +7.7 87 +7 +7 1012.3 1011.8
04 20.05 СЗ 5 60 км н/о +10.0 +8.1 88 +7 +7 1012.4 1011.9
05 20.05 СЗ 4 65 км н/о +9.6 +7.8 89 +7 +7 1012.7 1012.2
06 20.05 СЗ 5 >70 км н/о +10.1 +8.1 87 +7 +7 1013.0 1012.5 +9.5
07 20.05 СЗ 4 >70 км н/о +10.3 +7.8 84 +8 +8 1013.3 1012.8
08 20.05 СЗ 5 >70 км н/о +10.8 +8.2 84 +8 +8 1013.7 1013.2
09 20.05 СЗ 4 >70 км н/о +11.1 +8.4 83 +9 +9 1013.9 1013.4
10 20.05 СЗ 4 >70 км н/о +11.4 +7.9 79 +9 +9 1014.3 1013.9
11 20.05 З 4 >70 км н/о +12.1 +8.6 79 +10 +10 1014.6 1014.1
12 20.05 З 5 >70 км н/о +12.0 +8.4 79 +10 +10 1014.8 1014.4
13 20.05 СЗ 6 >70 км н/о +12.1 +8.3 78 +10 +10 1015.1 1014.6
14 20.05 З 6 >70 км н/о +12.2 +8.6 79 +10 +10 1015.4 1014.9
15 20.05 СЗ 6 >70 км н/о +12.2 +8.3 77 +10 +10 1015.7 1015.2
16 20.05 СЗ 5 >70 км н/о +12.1 +8.4 78 +10 +10 1015.9 1015.4
17 20.05 СЗ 6 >70 км н/о +11.6 +7.7 77 +9 +9 1016.2 1015.7
18 20.05 СЗ 6 >70 км н/о +11.3 +8.0 80 +8 +8 1016.5 1016.0 +12.8
19 20.05 С 4 >70 км н/о +10.5 +7.1 79 +8 +8 1016.9 1016.4
20 20.05 СЗ 4 >70 км н/о +10.4 +7.1 80 +8 +8 1017.0 1016.5
21 20.05 СЗ 3 >70 км н/о +9.4 +7.1 86 +7 +7 1017.4 1016.9
22 20.05 СЗ 3 >70 км н/о +9.0 +6.9 87 +6 +6 1017.5 1017.1
23 20.05 С 2 >70 км н/о +9.7 +7.4 86 +8 +8 1017.9 1017.4
00 21.05 СЗ 3 >70 км н/о +9.8 +7.5 86 +8 +8 1018.0 1017.5
01 21.05 СЗ 3 >70 км н/о +9.9 +7.3 84 +8 +8 1018.0 1017.5
02 21.05 СЗ 2 >70 км н/о +9.5 +6.9 84 +8 +8 1018.3 1017.8
03 21.05 СЗ 4 900 м сильн. ливневой дождь н/о +8.6 +5.9 83 +5 +5 1018.6 1018.1
04 21.05 С 3 >70 км в посл. час дождь н/о +8.6 +5.8 83 +6 +6 1018.6 1018.1
05 21.05 СЗ 2 >70 км н/о +8.1 +5.3 82 +6 +6 1018.5 1018.0
06 21.05 СЗ 3 >70 км н/о +9.9 +7.2 83 +8 +8 1018.7 1018.2 +8.0 4
07 21.05 СЗ 3 >70 км н/о +10.6 +6.8 77 +9 +9 1018.9 1018.4
08 21.05 СЗ 4 >70 км н/о +11.0 +6.8 75 +9 +9 1019.3 1018.8
09 21.05 СЗ 6 >70 км н/о +10.7 +6.5 75 +8 +8 1019.7 1019.2
10 21.05 СВ 3 29 км слаб. ливневой дождь н/о +10.0 +5.4 73 +8 +8 1019.9 1019.4
11 21.05 СЗ 6 >70 км в посл. час дождь н/о +11.5 +6.8 73 +9 +9 1020.0 1019.5
12 21.05 СЗ 6 >70 км н/о +11.8 +6.7 71 +9 +9 1020.1 1019.6 0.0
13 21.05 СЗ 7 >70 км н/о +11.9 +6.3 69 +9 +9 1020.3 1019.8
14 21.05 СЗ 6 >70 км н/о +12.0 +5.9 66 +10 +10 1020.4 1019.9
15 21.05 СЗ 6 >70 км н/о +12.6 +6.8 68 +10 +10 1020.4 1019.9
16 21.05 СЗ 6 >70 км н/о +12.0 +5.8 66 +9 +9 1020.4 1019.9
17 21.05 СЗ 6 >70 км н/о +11.9 +6.0 67 +9 +9 1020.5 1020.0
18 21.05 СЗ 6 >70 км н/о +11.4 +5.7 68 +9 +9 1020.5 1020.0 +12.7 0.0
19 21.05 СЗ 6 >70 км н/о +11.0 +5.2 67 +8 +8 1020.5 1020.1
20 21.05 СЗ 5 >70 км н/о +10.1 +4.9 70 +7 +7 1020.5 1020.0
21 21.05 СЗ 4 >70 км н/о +9.2 +5.3 77 +6 +6 1020.6 1020.1
22 21.05 СЗ 5 >70 км н/о +9.2 +5.5 78 +6 +6 1020.4 1019.9
23 21.05 СЗ 5 >70 км н/о +9.0 +5.0 76 +6 +6 1020.2 1019.7
00 22.05 СЗ 5 >70 км н/о +9.5 +5.6 77 +6 +6 1020.0 1019.5
01 22.05 СЗ 5 >70 км н/о +9.2 +5.4 77 +6 +6 1019.8 1019.3
02 22.05 СЗ 5 >70 км н/о +9.7 +5.3 74 +7 +7 1019.5 1019.0
03 22.05 СЗ 5 >70 км н/о +9.8 +5.8 76 +7 +7 1019.3 1018.8
04 22.05 СЗ 6 >70 км н/о +9.7 +5.8 77 +6 +6 1019.1 1018.6
05 22.05 СЗ 6 >70 км н/о +9.8 +5.9 77 +6 +6 1018.9 1018.4
06 22.05 СЗ 6 >70 км н/о +9.8 +5.8 76 +6 +6 1018.7 1018.2 +8.7
07 22.05 СЗ 6 >70 км н/о +11.0 +7.1 77 +8 +8 1018.6 1018.1
08 22.05 СЗ 6 >70 км н/о +10.5 +6.0 74 +7 +7 1018.7 1018.2
09 22.05 СЗ 6 >70 км н/о +11.3 +7.4 77 +8 +8 1018.7 1018.2
10 22.05 СЗ 6 >70 км н/о +11.1 +7.1 76 +8 +8 1018.8 1018.3
11 22.05 СЗ 7 >70 км н/о +11.3 +7.1 75 +8 +8 1018.6 1018.1
12 22.05 СЗ 7 >70 км н/о +12.3 +8.0 75 +9 +9 1018.3 1017.8
13 22.05 СЗ 7 >70 км н/о +12.3 +7.0 70 +9 +9 1018.1 1017.6
14 22.05 СЗ 7 >70 км н/о +11.9 +7.1 72 +9 +9 1017.8 1017.4
15 22.05 З 7 >70 км н/о +11.8 +7.2 73 +9 +9 1017.7 1017.2
16 22.05 СЗ 7 >70 км н/о +11.5 +7.4 76 +8 +8 1017.7 1017.2
17 22.05 СЗ 8 >70 км н/о +11.3 +7.7 78 +8 +8 1017.4 1016.9
18 22.05 З 8 >70 км н/о +11.1 +7.6 79 +8 +8 1017.1 1016.6 +13.0
19 22.05 СЗ 8 50 км н/о +10.8 +8.3 85 +7 +7 1016.8 1016.3
20 22.05 З 9 11 км в посл. час дождь н/о +9.7 +8.6 93 +5 +5 1016.5 1016.0
21 22.05 З 6 50 км в посл. час дождь н/о +10.1 +9.0 93 +6 +6 1016.5 1016.0
22 22.05 СЗ 6 >70 км н/о +10.1 +8.0 87 +7 +7 1016.2 1015.7
23 22.05 СЗ 6 >70 км н/о +10.1 +7.7 85 +7 +7 1015.8 1015.3
00 23.05 СЗ 6 50 км н/о +10.0 +7.9 87 +6 +6 1015.5 1015.0 0.6
01 23.05 СЗ 6 >70 км н/о +9.9 +7.7 86 +6 +6 1015.2 1014.7
02 23.05 СЗ 6 70 км н/о +9.9 +7.3 84 +6 +6 1015.1 1014.6
03 23.05 СЗ 6 65 км н/о +9.9 +7.0 82 +6 +6 1014.6 1014.2
04 23.05 СЗ 7 17 км дым н/о +9.3 +7.5 89 +5 +5 1014.5 1014.0
05 23.05 СЗ 6 55 км н/о +9.6 +7.6 87 +6 +6 1014.1 1013.6
06 23.05 СЗ 6 29 км н/о +9.3 +7.8 90 +5 +5 1014.1 1013.6 +9.2 0.6
07 23.05 СЗ 6 10 км дым н/о +9.2 +8.0 92 +5 +5 1014.3 1013.8
08 23.05 СЗ 6 2300 м слаб. морось с дождем н/о +9.1 +8.2 94 +5 +5 1014.3 1013.8
09 23.05 СЗ 6 >70 км в посл. час дождь н/о +9.7 +7.9 89 +6 +6 1014.5 1014.0
10 23.05 СЗ 5 11 км н/о +9.9 +8.1 89 +7 +7 1014.5 1014.0
11 23.05 СЗ 6 >70 км н/о +10.4 +7.2 81 +7 +7 1014.4 1013.9
12 23.05 СЗ 7 35 км н/о +10.3 +6.8 79 +7 +7 1014.5 1014.0 0.2
13 23.05 СЗ 7 >70 км н/о +10.7 +6.8 77 +7 +7 1014.7 1014.2
14 23.05 СЗ 8 >70 км н/о +10.9 +6.7 75 +7 +7 1014.8 1014.3
15 23.05 СЗ 7 >70 км н/о +10.2 +7.3 82 +6 +6 1014.8 1014.3
16 23.05 З 7 >70 км н/о +10.1 +6.8 80 +7 +7 1015.0 1014.5
17 23.05 З 8 >70 км н/о +10.4 +6.5 77 +7 +7 1015.0 1014.6
18 23.05 З 8 >70 км н/о +10.3 +5.8 74 +7 +7 1015.0 1014.5 +11.6 0.2
19 23.05 СЗ 6 60 км н/о +10.1 +5.8 75 +7 +7 1015.2 1014.7
20 23.05 СЗ 7 60 км н/о +9.6 +5.4 75 +6 +6 1015.3 1014.8
21 23.05 СЗ 6 45 км н/о +9.4 +5.4 76 +6 +6 1015.4 1014.9
22 23.05 СЗ 6 45 км н/о +9.2 +5.4 77 +6 +6 1015.7 1015.2
23 23.05 СЗ 6 40 км н/о +9.3 +4.9 74 +6 +6 1016.0 1015.5
00 24.05 СЗ 5 40 км н/о +9.3 +5.1 75 +6 +6 1016.0 1015.6
01 24.05 СЗ 6 45 км н/о +9.2 +5.5 78 +6 +6 1016.2 1015.7
02 24.05 СЗ 6 45 км н/о +9.2 +5.1 76 +6 +6 1016.3 1015.8
03 24.05 СЗ 6 50 км н/о +9.1 +4.5 73 +5 +5 1016.2 1015.7
04 24.05 СЗ 4 45 км н/о +9.1 +4.8 74 +6 +6 1016.1 1015.6
05 24.05 З 5 30 км н/о +9.1 +5.1 76 +6 +6 1016.6 1016.1
06 24.05 СЗ 5 45 км н/о +9.2 +4.7 73 +6 +6 1016.8 1016.3 +9.0
07 24.05 СЗ 4 35 км н/о +9.4 +4.8 73 +7 +7 1017.1 1016.6
08 24.05 СЗ 5 29 км н/о +9.6 +4.8 72 +6 +6 1017.4 1017.0
09 24.05 СЗ 5 26 км н/о +9.7 +5.5 75 +7 +7 1017.7 1017.2
10 24.05 СЗ 6 26 км н/о +9.6 +5.7 77 +6 +6 1017.9 1017.4
11 24.05 З 4 26 км н/о +10.1 +5.8 75 +7 +7 1018.2 1017.7
12 24.05 СЗ 5 30 км н/о +10.8 +6.3 74 +8 +8 1018.4 1017.9
13 24.05 СЗ 5 30 км н/о +10.8 +5.4 69 +8 +8 1018.5 1018.0
14 24.05 СЗ 5 30 км н/о +10.8 +5.3 69 +8 +8 1019.0 1018.5
15 24.05 СЗ 5 25 км н/о +10.5 +5.4 71 +8 +8 1019.1 1018.6
16 24.05 З 5 30 км н/о +10.9 +5.1 67 +8 +8 1019.0 1018.5
17 24.05 СЗ 5 30 км н/о +10.5 +4.8 68 +8 +8 1018.9 1018.4
18 24.05 З 5 30 км н/о +10.3 +5.0 70 +8 +8 1019.2 1018.7 +11.3

 

Местоположение метеостанции Южный Уист (Великобритания): широта 57.33 долгота -7.37 высота над уровнем моря 4 м.

В архиве по умолчанию представлена погода на Южном Уисте за последнюю неделю. Архивные данные за месяц целиком и за предыдущие месяцы, начиная с января 2011 года, Вы можете получить, выбрав интересующий диапазон дат из раскрывающегося списка и нажав кнопку "Ввод!".


*Определитесь, кто Вы:
робот инопланетянин человек

Внимание! Время в таблицах - всемирное. Для получения местного времени необходимо прибавить поправку, которая равна 0 ч.

Смотрите также архив погоды в соседних городах и на ближайших метеорологических станциях:

Погода на Скае (Великобритания) (95 км)
Погода на Тири (Великобритания) (97 км)
Погода на Перевале Bealach Na Ba (Великобритания) (102 км)
Погода в Сторновее (Великобритания) (117 км)
Погода в Олтбее (Великобритания) (120 км)
Погода на Озере Гласкарнок (Великобритания) (155 км)
Погода на Горе Аонах Мор (Великобритания) (156 км)
Погода на Станции Tulloch Bridge (Великобритания) (169 км)
Погода в Порт-Эллене (Великобритания) (196 км)
Погода на Алтнахарре (Великобритания) (204 км)

Пояснения к столбцам:

Ветер - указаны скорость ветра в м/с - средняя за 10 мин, порывы в срок и между сроками (в фигурных скобках) и направление, откуда дует ветер: С - северный, СВ - северо-восточный, В - восточный, ЮВ - юго-восточный, Ю - южный, ЮЗ - юго-западный, З - западный, СЗ - северо-западный.
Видимость - горизонтальная дальность видимости в метрах или километрах. При видимости от 1 до 10 км при отсутствии осадков обычно наблюдается дымка, при ухудшении видимости до 1 км и менее - туман. В сухую погоду видимость может ухудшаться дымом, пылью или мглою.
Явления - указаны атмосферные явления, наблюдавшиеся в срок или в последний час перед сроком; фигурными скобками обозначены явления, наблюдавшиеся между сроками (за 1-3 часа до срока); квадратными скобками обозначены град или гололедные отложения с указанием их диаметра в мм.
Облачность - указаны через наклонную черту общая и нижняя облачность в баллах и высота нижней границы облаков в метрах; квадратными скобками обозначены формы облаков: Ci - перистые, Cs - перисто-слоистые, Cc - перисто-кучевые, Ac - высококучевые, As - высокослоистые, Sc - слоисто-кучевые, Ns - слоисто-дождевые, Cu - кучевые, Cb - кучево-дождевые. Подробнее классификацию облаков см. в Атласе облаков (PDF).
T - Температура воздуха - температура, измеренная на высоте 2 м над землей.
Td - Температура точки росы - температура, при понижении до которой содержащийся в воздухе водяной пар достигнет насыщения.
f - Относительная влажность воздуха - влажноcть воздуха, измеренная на высоте 2 м над землей.
Te - Эффективная температура - температура, которую ощущает одетый по сезону человек в тени. Характеристика душности погоды. При расчете учитывается влияние влажности воздуха и скорости ветра на теплоощущения человека.
Tes - Эффективная температура на солнце - температура, которую ощущает человек, с поправкой на солнечный нагрев. Характеристика знойности погоды. Зависит от высоты солнца над горизонтом, облачности и скорости ветра. Ночью, в пасмурную погоду, а также при ветре 12 м/с и более поправка равна нулю.
P - Атмосферное давление - приведенное к уровню моря атмосферное давление.
Po - Атмосферное давление - измеренное на уровне метеостанции атмосферное давление.
Tmin - Минимальная температура - минимум температуры воздуха на высоте 2 м над землей.
Tmax - Максимальная температура - максимум температуры воздуха на высоте 2 м над землей.
R - Количество осадков - Количество выпавших осадков за период времени, мм. При наведении курсора мыши на число - период времени, за который выпало указанное количество осадков.
R24 - Количество осадков - Количество выпавших осадков за 24 часа, мм.
S - Снежный покров - Высота снежного покрова, см. При наведении курсора мыши на число - состояние снежного покрова и степень покрытия местности в баллах.